Погода Каменная Степь

Погода Каменная Степь : погода сейчас, прогноз погоды и архив. Всё, что Вы хотите узнать о погоде Каменная Степь!

Поиск расширенной информации на нашем сайте:

Другие новости

Новости СМИ2

Главная страница сайта

Новости сайта

03.07.2017

Напоминаем, что на нашем специализированном сайте Метеоцентр.Азия вы можете получить высокодетализированные автоматические прогнозы погоды по пунктам России, СНГ и мира в авиационном формате (включающие направление и скорость ветра, видимость, явления погоды, количество и форму облачности, нижнюю и верхнюю границу облачности).


Погода Каменная Степь - сегодня

Время (UTC), дата Ветер
(°,м/с) 
Видим.   Явления Облачность Т
(°С)
Тd
(°С)
f(%) Тe
(°С)
Pmin
(гПа)
dP
(гПа)
Po
(мм)
O2
(г/м3)
Тmin Tmax R s Состояние
почвы
00 15.05.18 020 (С) 10 км    10/10 600 м 
[Sc]
+14.7 +11 78 +19  1021.2  1.4  749  284           
06 15.05.18 360 (С) 11000 м    10/8 600 м средняя 
[Sc|Ac As]
+19.2 +13.6 70 +27  1020.6  0.1  748  279           
09 15.05.18 050 (СВ) 12000 м    10/8 600 м средняя, верхняя 
[Sc|Ac trans|Ci fib]
+24 +11 44 +27  1020.2  748  275           
12 15.05.18 230 (ЮЗ) 12000 м    9/9 600 м 
[Sc]
+24.8 +8.2 35 +25  1019.8  -0.4  748  275           
18 15.05.18 360 (С) 10 км    8/8 600 м 
[Sc]
+20.2 +13.8 67 +27  1019.4  0.6  748  278           
21 15.05.18 040 (СВ) 10 км    8/8 600 м 
[Sc]
+18.8 +13.1 69 +25  1019.4  -0.1  748  279           
00 16.05.18 090 (В) 10 км    8/8 600 м 
[Sc]
+16.9 +12.9 77 +22  1019.6  748  281           
06 16.05.18 180 (Ю) 11000 м    8/6 600 м средняя 
[Sc|Ac lent]
+20.4 +14.4 68 +28  1019  0.5  747  277  +14.7         
09 16.05.18 180 (Ю) 13000 м    8/4 600 м средняя, верхняя 
[Cu hum|Ac cast|Ci fib]
+24.1 +12.4 48 +29  1018.5  -0.2  747  274           
18 16.05.18 230 (ЮЗ) 10 км    3/1 600 м верхняя 
[Cu hum|Ci fib]
+21.3 +11.9 55 +25  1016.8  0.2  746  277           
21 16.05.18 160 (Ю) 10 км    3/3 600 м 
[Sc]
+18.1 +11.1 64 +22  1017.3  0.2  746  280           
00 17.05.18 180 (Ю) 10 км    4/1 600 м верхняя 
[Sc|Ci fib]
+17.3 +12.2 72 +22  1017.4  0.1  746  280           
06 17.05.18 210 (ЮЗ) 13000 м    10/4 600 м средняя, верхняя 
[Cu Sc|Ac As|Cs]
+22.7 +14.8 61 +31  1017.2  0.2  746  275           
09 17.05.18 170 (Ю) 13000 м    10/6 600 м верхняя 
[Cu Sc|Cs]
+26.5 +14.3 47 +34  1016.6  -0.4  746  271           
12 17.05.18 200 (Ю) 13000 м    8/4 600 м верхняя 
[Cu Sc|Cs]
+28.2 +9.5 31 +29  1015.3  -1.1  745  270           
18 17.05.18 160 (Ю) 10 км  {гроза, ливн. осадки}  8/6 600 м средняя 
[Sc|As trans]
+22.3 +13.1 56 +28  1014.9  744  275           
21 17.05.18 140 (ЮВ) 10 км  зарница  ясно 
+20.6 +12.8 61 +26  1014.7  -0.3  744  276           
00 18.05.18 160 (Ю) 10 км    8/8 600 м 
[Sc]
+17.5 +13 75 +24  1013.8  -1.1  743  279           
06 18.05.18 140 (ЮВ) 12000 м    10/3 600 м верхняя 
[Sc|Ci fib]
+24 +14.2 54 +32  1011.3  -1  742  272           
06 19.05.18 180 (Ю) 10 км    8/4 600 м верхняя 
[Sc|Ci fib]
+20 +16 78 +31  1009.7  0.3  740  275           
18 19.05.18 160 (Ю) 10 км    3/3 600 м 
[Sc]
+17.4 +11.8 70 +22  1011.6  1.2  742  279           
21 19.05.18 160 (Ю) 10 км    3/3 600 м 
[Sc]
+15.2 +11.9 81 +20  1012.5  0.7  742  281           
03 20.05.18 230 (ЮЗ) 9000 м  дымка  10/3 600 м верхняя 
[Sc|Ci fib]
+14.3 +12.5 89 +21  1013.6  0.8  743  282  +12.8         
06 20.05.18 290 (З) 11000 м    8/3 600 м средняя 
[Sc|Ac As]
+18.3 +12.4 68 +25  1014  0.7  743  278           
09 20.05.18 290 (З) 13000 м    9/8 600 м верхняя 
[Cu hum|Ci fib]
+21.4 +11.5 53 +25  1014  0.3  744  276           
Время (UTC), дата Ветер
(°,м/с) 
Видим.   Явления Облачность Т
(°С)
Тd
(°С)
f(%) Тe
(°С)
Pmin
(гПа)
dP
(гПа)
Po
(мм)
O2
(г/м3)
Тmin Tmax R s Состояние
почвы

Для получения пояснительной информации подведите курсор к названию столбца.

ПОГОДА Каменная Степь - архив

Всё, что Вы хотите узнать о погоде Каменная Степь - удобно и подробно!

Выберите нужную дату (начиная с 1 января 2015* года) и нажмите кнопку "Найти".
Будут отображены архивные сводки погоды по пункту Каменная Степь, начиная с указанной даты.


Отображать данные в формате CSV (для использования в таблицах Excel)


Внимание! Наш архив погоды предназначен исключительно для личного некоммерческого использования в познавательных целях. Если Вам необходимы официальные справки о состоянии погоды (для производственных, юридических, коммерческих и т.п. целей), обращайтесь в органы Росгидромета.

*Примечание: данная дата относится к архиву по метеостанциям СССР (Россия, СНГ, Балтия).
Архив по метеостанциям Зарубежной Европы и Азии (кроме Китая) хранится 10 дней, по другим регионам земного шара (Китай, Африка, Америка, Австралия, Океания) - 1 день.

Каменная Степь - район местоположения метеостанции


Название, широта, долгота, высота метеостанции:
Каменная Степь 51.1°ш. 40.7°д. 194 м над ур. моря [Российская Федерация]

Дополнительная информация

В oтличие oт бoльшинства пoгoдных сайтoв мы публикуем пoдрoбную метеoинфoрмацию в детальнoм прoфессиoнальнoм фoрмате.

Характеристики температуры и влажнoсти вoздуха измеряются на высoте 2 м в тени вдали oт зданий и деревьев.
Скoрoсть ветра измеряется на высoте 10 м (на урoвне рoста челoвека скoрoсть ветра ниже в 1.5-2 раза). Если метеoстанция нахoдится в гoрoде или в лесу, тo скoрoсть ветра занижена на 2-4 м/с пo сравнению с oткрытым местoм. Скoрoсть ветра над акватoриями крупных рек и oзёр, а также на вершинах хoлмoв на 2-5 м/с выше, чем в oбычных услoвиях.
Атмoсфернoе давление в разных тoчках местнoсти мoжет значительнo oтличаться oт давления на метеoстанции, в зависимoсти oт услoвий рельефа (при пoдъёме на 10 м давление пoнижается примернo на 1 мм рт.ст.).